Overview Statistics Trail Chart Weather Telemetry Raw packets
 

This is the latest recevied weather packets stored in our database for station/object IONIA-WX. If no packets are shown the sender has not sent any weather packets the latest 10 day(s).

<< 2 3 4 5 6 7 8 >>
Time Temp. Humidity Pressure Rain* Wind** Luminosity Snow
1788549323 24.44° C 80% 984.3 hPa 0 mm - - -
1788548421 23.89° C 80% 984.3 hPa 0 mm - - -
1788547523 24.44° C 78% 985 hPa 0 mm - - -
1788546620 25° C 78% 985.1 hPa 0 mm - - -
1788545724 25° C 78% 985.1 hPa 0 mm - - -
1788544822 24.44° C 78% 985.1 hPa 0 mm - - -
1788543922 24.44° C 84% 984.6 hPa 0 mm - - -
1788543020 23.33° C 81% 984.8 hPa 0 mm - - -
1788542124 23.33° C 81% 984.8 hPa 0 mm - - -
1788541220 23.33° C 81% 984.8 hPa 0 mm - - -
1788540318 23.89° C 82% 984.1 hPa 0 mm - - -
1788539417 22.78° C 90% 984.5 hPa 0 mm - - -
1788538522 22.78° C 90% 984.5 hPa 0 mm - - -
1788537621 22.22° C 90% 984.5 hPa 0 mm - - -
1788536745 21.67° C 93% 984.6 hPa 1.78 mm - - -
1788535822 21.67° C 94% 985 hPa 1.78 mm - - -
1788534917 21.11° C 94% 985 hPa 7.11 mm - - -
1788534018 21.11° C 94% 985 hPa 7.11 mm - - -
1788533124 20.56° C 97% 986.3 hPa 5.33 mm - - -
1788532222 20.56° C 95% 986 hPa 5.33 mm - - -
1788531323 21.11° C 95% 986.1 hPa 2.29 mm - - -
1788530422 21.11° C 97% 985.8 hPa 2.29 mm - - -
1788529522 21.11° C 96% 984.4 hPa 1.78 mm - - -
1788528623 21.67° C 96% 984.4 hPa 1.78 mm - - -
1788527718 21.11° C 96% 984.3 hPa 15.49 mm - - -

* Rain latest hour (hover to see other rain measurements)
** Current wind speed in m/s (hover to see current wind gust speed)